{"data":{"norad_id":60209,"epoch":"2026-09-19T20:54:01.492704Z","epoch_age_seconds":68697,"freshness":"FRESH","line1":"1 60209U 24125G   26262.87085061  .00092687  00000+0  58455-3 0  9995","line2":"2 60209  97.2102 123.2702 0006378 200.2657 159.8357 15.76354522124413","mean_motion":15.76354522,"eccentricity":0.0006378,"inclination_deg":97.2102,"raan_deg":123.2702,"arg_perigee_deg":200.2657,"mean_anomaly_deg":159.8357,"bstar":0.00058455,"rev_number":12441,"period_min":91.350009144707,"perigee_km":336.49416706699,"apogee_km":345.06481694419,"semimajor_km":6718.9164920056,"source":"CELESTRAK","updated_at":"2026-09-20T09:00:45.239521Z"}}